W1QED Fitchburg MA US current weather conditions

sailwx.info

Wind from 271 at 0 knots gusting 1

Air temperature -2.8° C
Dewpoint -6.2° C

Last reported at 2019-Dec-11 21:50 UTC.
Time now 2019-Dec-11 22:25 UTC

Location: N 42°36' W 071°47'.
View on Google Maps.

See reports from other nearby stations

  
Tides and Currents Weather Stations Pressure Air Temp Water Temp Dewpoint Dewpoint Depression Visibility Wind Speed Wind Dir Waves Ship Positions
date/time (UTC)wind fromknots sea level pressurealtimeterstation pressurevisibilityair tempwater tempwave heightnotes
2019-Dec-11 22:01 240 -3.3
2019-Dec-11 21:50 271 0 gusting 1 -2.8
2019-Dec-11 21:47 270 0 gusting 1 -2.8
2019-Dec-11 21:41 266 -2.8
2019-Dec-11 21:35 264 0 gusting 1 -2.8
2019-Dec-11 21:33 243 -2.2
2019-Dec-11 21:25 256 0 gusting 1 -2.2
2019-Dec-11 21:20 243 -2.2
2019-Dec-11 21:16 206 -2.2
2019-Dec-11 21:05 182 -1.7
2019-Dec-11 21:04 232 -1.1
2019-Dec-11 20:55 162 -1.1
2019-Dec-11 20:50 233 -0.6
2019-Dec-11 20:46 184 -0.6
2019-Dec-11 20:40 209 -1.1
2019-Dec-11 20:35 201 -1.7
2019-Dec-11 20:31 214 -1.7
2019-Dec-11 20:25 177 -1.7
2019-Dec-11 20:20 211 -1.7
2019-Dec-11 20:16 223 -1.1
2019-Dec-11 20:11 236 -1.1
2019-Dec-11 20:05 236 -0.6
2019-Dec-11 20:01 233 -0.6
2019-Dec-11 19:55 260 -0.6
2019-Dec-11 19:50 261 0 gusting 1 -0.6
2019-Dec-11 19:46 283 -0.6
2019-Dec-11 19:40 279 0 gusting 2 -0.6
2019-Dec-11 19:35 295 0 gusting 2 -0.6
2019-Dec-11 19:31 260 -0.6
2019-Dec-11 19:25 273 0 gusting 4 -0.6
2019-Dec-11 19:20 264 1 gusting 4 -0.0
2019-Dec-11 19:15 240 0 gusting 3 -0.6
2019-Dec-11 19:10 247 -0.6
2019-Dec-11 19:05 243 0 gusting 3 -0.6
2019-Dec-11 19:00 262 1 gusting 3 -0.6
2019-Dec-11 18:55 262 0 gusting 2 -0.6
2019-Dec-11 18:50 226 1 gusting 2 -0.6
2019-Dec-11 18:46 243 0 gusting 2 -0.0
2019-Dec-11 18:40 205 0 gusting 2 -0.6
2019-Dec-11 18:35 259 1 gusting 4 -0.6
2019-Dec-11 18:31 222 0 gusting 4 -0.6
2019-Dec-11 18:25 257 0 gusting 4 -0.6
2019-Dec-11 18:20 244 1 gusting 4 -0.0
2019-Dec-11 18:15 266 0 gusting 2 -0.0
2019-Dec-11 18:10 249 -0.6
2019-Dec-11 18:05 276 0 gusting 3 -0.6
2019-Dec-11 18:00 282 1 gusting 3 -0.0
2019-Dec-11 17:55 229 1 gusting 3 -0.6
2019-Dec-11 17:50 281 0 gusting 3 -0.6
2019-Dec-11 17:40 278 0 gusting 2 -0.0
2019-Dec-11 17:35 272 -0.0
2019-Dec-11 17:30 251 -0.0
2019-Dec-11 17:25 335 -0.6
2019-Dec-11 17:20 257 0 gusting 3 -0.6
2019-Dec-11 17:10 273 1 gusting 2 -0.6
2019-Dec-11 16:55 284 -0.6
2019-Dec-11 16:50 269 -0.6
2019-Dec-11 16:40 276 -0.6
2019-Dec-11 16:35 234 -0.6
2019-Dec-11 16:30 281 -0.6
2019-Dec-11 16:25 251 -1.1
2019-Dec-11 16:20 259 -1.1
2019-Dec-11 16:15 282 -1.7
2019-Dec-11 16:10 288 -1.7
2019-Dec-11 16:02 274 -1.7
2019-Dec-11 15:55 274 -1.7
2019-Dec-11 15:50 274 -1.7
2019-Dec-11 15:46 274 -2.2
2019-Dec-11 15:41 269 -2.2
2019-Dec-11 15:35 267 -2.2
2019-Dec-11 15:32 267 -2.2
2019-Dec-11 15:25 266 -2.2
2019-Dec-11 15:20 262 -2.2
2019-Dec-11 15:16 273 -2.2
2019-Dec-11 15:10 278 -2.2
2019-Dec-11 15:05 293 -2.2
2019-Dec-11 15:01 350 -2.2
2019-Dec-11 14:55 260 -2.2
2019-Dec-11 14:50 271 -2.2
2019-Dec-11 14:41 272 -2.2
2019-Dec-11 14:36 259 -2.2
2019-Dec-11 14:32 264 -2.2
2019-Dec-11 14:25 245 -2.2
2019-Dec-11 14:20 240 -2.2
2019-Dec-11 14:18 273 -2.8
2019-Dec-11 14:10 273 -2.8
2019-Dec-11 14:05 273 -2.8
2019-Dec-11 14:02 273 -2.8
2019-Dec-11 13:55 273 -2.8
2019-Dec-11 13:50 273 -2.8
2019-Dec-11 13:46 269 -2.8
2019-Dec-11 13:41 272 -2.8
2019-Dec-11 13:36 281 -2.8
2019-Dec-11 13:32 264 -2.8
2019-Dec-11 13:25 278 -2.8
2019-Dec-11 13:21 282 -2.8
2019-Dec-11 13:16 267 -2.8
2019-Dec-11 13:10 268 -2.8
2019-Dec-11 13:05 255 -2.8
2019-Dec-11 13:00 261 -2.8
2019-Dec-11 12:55 261 -2.8
2019-Dec-11 12:50 264 -2.8
2019-Dec-11 12:46 273 -2.8
2019-Dec-11 12:35 267 -2.8
2019-Dec-11 12:31 259 -2.8
2019-Dec-11 12:25 276 -2.8
2019-Dec-11 12:20 276 -3.3
2019-Dec-11 12:15 276 -3.3
2019-Dec-11 12:10 298 -3.3
2019-Dec-11 12:05 298 -3.3
2019-Dec-11 12:00 299 -3.3
2019-Dec-11 11:55 298 -3.3
2019-Dec-11 11:50 299 -3.3
2019-Dec-11 11:40 309 -3.3
2019-Dec-11 11:35 309 -3.3
2019-Dec-11 11:25 309 -3.3
2019-Dec-11 11:20 309 -3.3
2019-Dec-11 11:10 285 -3.3
2019-Dec-11 11:05 278 -3.3
2019-Dec-11 10:55 299 0 gusting 3 -3.3
2019-Dec-11 10:50 286 1 gusting 3 -3.3
2019-Dec-11 10:40 300 0 gusting 4 -3.3
2019-Dec-11 10:35 266 2 gusting 5 -3.3
2019-Dec-11 10:25 279 -2.8
2019-Dec-11 10:20 109 -2.2
2019-Dec-11 10:15 065 -2.2
2019-Dec-11 10:10 186 -2.2
2019-Dec-11 10:05 120 -2.2
2019-Dec-11 09:56 277 -2.2
2019-Dec-11 09:51 281 -2.2
2019-Dec-11 09:48 284 -2.2
2019-Dec-11 09:40 269 -2.2
2019-Dec-11 09:35 281 -2.2
2019-Dec-11 09:32 280 -2.2
2019-Dec-11 09:26 293 -2.2
2019-Dec-11 09:22 290 -2.2
2019-Dec-11 09:10 278 -1.7
2019-Dec-11 09:06 300 0 gusting 1 -1.7
2019-Dec-11 09:02 290 -1.7
2019-Dec-11 08:55 138 -1.7
2019-Dec-11 08:51 082 -1.7
2019-Dec-11 08:48 347 -1.7
2019-Dec-11 08:41 110 -1.7
2019-Dec-11 08:36 110 -1.7
2019-Dec-11 08:31 329 -1.7
2019-Dec-11 08:25 299 -1.7
2019-Dec-11 08:20 089 -1.1
2019-Dec-11 08:16 010 -1.1
2019-Dec-11 08:10 345 -1.1
2019-Dec-11 08:05 277 -1.1
2019-Dec-11 08:04 231 -1.1
2019-Dec-11 07:55 230 -1.1
2019-Dec-11 07:51 290 -0.6
2019-Dec-11 07:46 296 -0.6
2019-Dec-11 07:40 354 -0.6
2019-Dec-11 07:35 288 -0.6
2019-Dec-11 07:31 282 -0.6
2019-Dec-11 07:25 061 -0.6
2019-Dec-11 07:20 115 -0.6
2019-Dec-11 07:15 293 -0.0
2019-Dec-11 07:10 046 0 gusting 1 -0.0
2019-Dec-11 07:05 314 -0.0
2019-Dec-11 07:00 311 0 gusting 2 -0.0
2019-Dec-11 06:55 347 -0.0
2019-Dec-11 06:52 324 -0.0
2019-Dec-11 06:46 324 -0.0
2019-Dec-11 06:40 318 -0.0
2019-Dec-11 06:35 294 1 gusting 5 -0.0
2019-Dec-11 06:25 045 2 gusting 6 -0.0
2019-Dec-11 06:20 044 0 gusting 1 -0.0
2019-Dec-11 06:10 276 0.6
2019-Dec-11 06:05 276 0.6
2019-Dec-11 06:00 276 0.6
2019-Dec-11 05:55 276 0.6
2019-Dec-11 05:50 276 0.6
2019-Dec-11 05:41 279 0.6
2019-Dec-11 05:35 328 0.6
2019-Dec-11 05:26 341 0.6
2019-Dec-11 05:20 326 0.6
2019-Dec-11 05:10 005 0.6
2019-Dec-11 05:06 005 1 gusting 3 1.1
2019-Dec-11 05:01 302 1 gusting 3 1.1
2019-Dec-11 04:50 289 1.1
2019-Dec-11 04:47 253 1.1
2019-Dec-11 04:41 223 1.1
2019-Dec-11 04:35 158 1.1
2019-Dec-11 04:32 283 1.1
2019-Dec-11 04:26 287 1.7
2019-Dec-11 04:20 287 1.7
2019-Dec-11 04:16 264 1.7
2019-Dec-11 04:10 262 1.7
2019-Dec-11 04:05 262 1.7
2019-Dec-11 04:02 295 1.7
2019-Dec-11 03:55 295 1.7
2019-Dec-11 03:50 321 2.2
2019-Dec-11 03:47 279 2.2
2019-Dec-11 03:40 269 2.2
2019-Dec-11 03:35 300 0 gusting 4 2.2
2019-Dec-11 03:31 291 2.8
2019-Dec-11 03:25 271 2.8
2019-Dec-11 03:20 283 2.8
2019-Dec-11 03:15 307 1 gusting 4 2.8
2019-Dec-11 03:10 282 2.8
2019-Dec-11 03:05 006 2.8
2019-Dec-11 03:01 262 2.8
2019-Dec-11 02:55 265 2.8
2019-Dec-11 02:50 265 2.8
2019-Dec-11 02:46 265 2.8
2019-Dec-11 02:40 264 2.8
2019-Dec-11 02:30 264 0 gusting 2 3.3
2019-Dec-11 02:25 292 3.3
2019-Dec-11 02:20 267 3.3
2019-Dec-11 02:10 280 3.3
2019-Dec-11 02:05 293 3.3
2019-Dec-11 02:00 274 0 gusting 2 3.3
2019-Dec-11 01:55 322 3.9
2019-Dec-11 01:50 285 3.9
2019-Dec-11 01:45 015 0 gusting 2 3.9
2019-Dec-11 01:36 297 3.9
2019-Dec-11 01:33 097 3.9
2019-Dec-11 01:25 113 3.9
2019-Dec-11 01:21 018 3.9
2019-Dec-11 01:19 271 3.9
2019-Dec-11 01:10 271 3.9
2019-Dec-11 01:05 217 0 gusting 3 3.9
2019-Dec-11 01:04 270 0 gusting 3 3.9
2019-Dec-11 00:56 274 0 gusting 3 4.4
2019-Dec-11 00:50 243 0 gusting 4 4.4
2019-Dec-11 00:47 291 1 gusting 4 4.4
2019-Dec-11 00:40 273 1 gusting 6 4.4
2019-Dec-11 00:35 269 3 gusting 6 4.4
2019-Dec-11 00:32 291 2 gusting 6 5.0
2019-Dec-11 00:25 284 5.0
2019-Dec-11 00:20 295 1 gusting 5 5.0
2019-Dec-11 00:16 295 5.6
2019-Dec-11 00:10 292 2 gusting 6 5.6
2019-Dec-11 00:06 269 1 gusting 5 5.6
2019-Dec-11 00:01 279 0 gusting 2 5.6
2019-Dec-10 23:55 278 0 gusting 3 5.6
2019-Dec-10 23:50 285 1 gusting 4 6.1
2019-Dec-10 23:48 284 2 gusting 4 6.1
2019-Dec-10 23:40 286 2 gusting 5 6.1
2019-Dec-10 23:35 286 1 gusting 6 6.1
2019-Dec-10 23:31 268 3 gusting 8 6.7
2019-Dec-10 23:25 268 3 gusting 6 6.7
2019-Dec-10 23:20 248 2 gusting 6 7.2
2019-Dec-10 23:16 248 0 gusting 5 7.2
2019-Dec-10 23:10 273 2 gusting 5 7.2
2019-Dec-10 23:00 248 1 gusting 6 7.8
2019-Dec-10 22:55 283 1 gusting 6 8.3
2019-Dec-10 22:50 272 2 gusting 8 8.3
2019-Dec-10 22:40 274 5 gusting 8 10.0
2019-Dec-10 22:35 270 2 gusting 6 10.0
2019-Dec-10 22:30 162 2 gusting 6 10.0
2019-Dec-10 22:25 206 1 gusting 4 10.0
2019-Dec-10 22:20 240 0 gusting 6 10.0
2019-Dec-10 22:15 210 2 gusting 6 10.0
2019-Dec-10 22:06 242 0 gusting 3 10.0
2019-Dec-10 22:04 200 1 gusting 3 10.0
2019-Dec-10 21:55 226 0 gusting 2 10.0
2019-Dec-10 21:50 256 0 gusting 2 10.0
2019-Dec-10 21:47 244 10.0
2019-Dec-10 21:40 239 10.0
2019-Dec-10 21:35 252 0 gusting 4 10.0
2019-Dec-10 21:33 238 0 gusting 6 10.0
2019-Dec-10 21:26 207 1 gusting 6 10.0
2019-Dec-10 21:21 203 1 gusting 6 10.0
2019-Dec-10 21:18 169 1 gusting 4 10.0
2019-Dec-10 21:10 212 1 gusting 5 10.0
2019-Dec-10 21:05 242 1 gusting 5 10.0
2019-Dec-10 21:03 240 1 gusting 4 10.0
2019-Dec-10 20:55 240 1 gusting 4 10.0
2019-Dec-10 20:50 257 2 gusting 4 10.0
2019-Dec-10 20:49 219 1 gusting 6 10.6
2019-Dec-10 20:40 229 1 gusting 6 10.6
2019-Dec-10 20:36 284 2 gusting 6 10.6
2019-Dec-10 20:32 158 1 gusting 6 10.6
2019-Dec-10 20:25 205 1 gusting 4 10.6
2019-Dec-10 20:20 218 1 gusting 6 10.6
2019-Dec-10 20:17 206 2 gusting 6 10.6
2019-Dec-10 20:10 204 2 gusting 6 11.1
2019-Dec-10 20:05 184 3 gusting 6 11.1
2019-Dec-10 20:03 240 3 gusting 6 11.1
2019-Dec-10 19:56 224 2 gusting 6 11.1
2019-Dec-10 19:51 200 2 gusting 9 11.1
2019-Dec-10 19:47 210 5 gusting 9 11.1
2019-Dec-10 19:40 200 3 gusting 9 11.1
2019-Dec-10 19:35 238 1 gusting 6 11.1
2019-Dec-10 19:31 249 2 gusting 7 11.1
2019-Dec-10 19:25 252 2 gusting 9 11.1
2019-Dec-10 19:20 224 3 gusting 9 11.1
2019-Dec-10 19:17 233 2 gusting 8 11.1
2019-Dec-10 19:10 181 2 gusting 6 11.1
2019-Dec-10 19:06 212 2 gusting 6 11.1
2019-Dec-10 19:03 169 2 gusting 6 11.1
2019-Dec-10 18:55 236 3 gusting 6 11.1
2019-Dec-10 18:50 276 2 gusting 6 11.1
2019-Dec-10 18:47 224 2 gusting 5 11.1
2019-Dec-10 18:40 221 1 gusting 6 11.1
2019-Dec-10 18:35 255 2 gusting 6 11.1
2019-Dec-10 18:32 240 2 gusting 6 11.1
2019-Dec-10 18:25 257 2 gusting 6 11.1
2019-Dec-10 18:20 248 2 gusting 6 11.1
2019-Dec-10 18:16 252 2 gusting 7 11.1
2019-Dec-10 18:10 261 3 gusting 7 11.1
2019-Dec-10 18:05 242 2 gusting 5 11.1
2019-Dec-10 18:01 242 2 gusting 9 11.1
2019-Dec-10 17:55 239 4 gusting 9 11.1
2019-Dec-10 17:50 226 3 gusting 8 11.1
2019-Dec-10 17:46 254 3 gusting 9 11.1
2019-Dec-10 17:40 241 4 gusting 9 11.1
2019-Dec-10 17:35 252 3 gusting 11 11.7
2019-Dec-10 17:31 238 4 gusting 11 11.7
2019-Dec-10 17:25 244 4 gusting 9 11.7
2019-Dec-10 17:20 265 4 gusting 10 11.7
2019-Dec-10 17:10 252 3 gusting 8 11.7
2019-Dec-10 17:05 282 3 gusting 9 11.7
2019-Dec-10 16:55 212 4 gusting 8 11.7
2019-Dec-10 16:47 221 4 gusting 12 11.7
2019-Dec-10 16:40 252 6 gusting 12 11.7
2019-Dec-10 16:35 250 4 gusting 12 11.7
2019-Dec-10 16:25 266 3 gusting 8 11.7
2019-Dec-10 16:20 255 5 gusting 8 11.7
2019-Dec-10 16:10 237 3 gusting 10 11.7
2019-Dec-10 16:05 269 3 gusting 9 12.2
2019-Dec-10 16:01 268 5 gusting 12 12.2
2019-Dec-10 15:55 264 3 gusting 12 12.2
2019-Dec-10 15:50 233 3 gusting 8 11.7
2019-Dec-10 15:45 271 3 gusting 7 11.7
2019-Dec-10 15:40 247 3 gusting 7 11.7
2019-Dec-10 15:35 251 4 gusting 12 12.2
2019-Dec-10 15:25 195 2 gusting 8 12.2
2019-Dec-10 15:20 238 4 gusting 10 12.2
2019-Dec-10 15:15 222 5 gusting 10 12.2
2019-Dec-10 15:10 255 4 gusting 9 12.2
2019-Dec-10 15:05 214 4 gusting 9 12.2
2019-Dec-10 15:00 245 3 gusting 8 12.2
2019-Dec-10 14:50 245 5 gusting 9 11.7
2019-Dec-10 14:46 245 4 gusting 11 11.1
2019-Dec-10 14:40 200 3 gusting 11 11.1
2019-Dec-10 14:35 275 3 gusting 10 11.1
2019-Dec-10 14:34 181 3 gusting 7 11.1
2019-Dec-10 14:25 255 2 gusting 6 11.1
2019-Dec-10 14:20 273 3 gusting 7 11.1
2019-Dec-10 14:17 272 3 gusting 11 11.1
2019-Dec-10 14:05 248 2 gusting 8 11.1
2019-Dec-10 14:01 264 3 gusting 7 11.1
2019-Dec-10 13:55 268 3 gusting 13 10.6
2019-Dec-10 13:51 245 3 gusting 13 11.1
2019-Dec-10 13:47 215 5 gusting 11 11.1
2019-Dec-10 13:40 245 5 gusting 11 11.1
2019-Dec-10 13:35 261 4 gusting 9 10.6
2019-Dec-10 13:32 238 5 gusting 9 10.6
2019-Dec-10 13:25 242 3 gusting 10 10.6
2019-Dec-10 13:20 247 3 gusting 11 10.6
2019-Dec-10 13:16 264 3 gusting 11 10.6
2019-Dec-10 13:10 205 4 gusting 10 10.6
2019-Dec-10 13:05 240 4 gusting 10 10.6
2019-Dec-10 13:01 262 4 gusting 7 10.6
2019-Dec-10 12:55 236 4 gusting 7 10.6
2019-Dec-10 12:50 269 3 gusting 7 10.6
2019-Dec-10 12:46 238 3 gusting 7 10.6
2019-Dec-10 12:41 214 4 gusting 7 10.0
2019-Dec-10 12:35 247 2 gusting 7 10.0
2019-Dec-10 12:31 211 4 gusting 7 10.6
2019-Dec-10 12:25 210 2 gusting 6 10.6
2019-Dec-10 12:20 230 3 gusting 6 10.6
2019-Dec-10 12:16 261 2 gusting 7 10.6
2019-Dec-10 12:10 246 2 gusting 9 10.6
2019-Dec-10 12:05 199 3 gusting 9 10.6
2019-Dec-10 12:02 230 3 gusting 12 10.6
2019-Dec-10 11:55 262 4 gusting 7 10.6
2019-Dec-10 11:50 250 3 gusting 10 10.6
2019-Dec-10 11:45 236 4 gusting 10 10.6
2019-Dec-10 11:40 249 3 gusting 9 10.6
2019-Dec-10 11:35 240 4 gusting 9 10.0
2019-Dec-10 11:31 210 2 gusting 6 10.0
2019-Dec-10 11:20 214 4 gusting 9 10.0
2019-Dec-10 11:15 234 2 gusting 7 10.0
2019-Dec-10 11:10 257 2 gusting 7 10.0
2019-Dec-10 11:05 215 4 gusting 7 10.0
2019-Dec-10 11:00 258 2 gusting 8 10.0
2019-Dec-10 10:55 264 2 gusting 9 10.0
2019-Dec-10 10:50 254 3 gusting 9 10.0
2019-Dec-10 10:40 220 3 gusting 6 10.0
2019-Dec-10 10:35 229 3 gusting 6 10.0
2019-Dec-10 10:25 266 4 gusting 10 10.0
2019-Dec-10 10:20 254 5 gusting 10 10.0
2019-Dec-10 10:10 148 2 gusting 8 9.4
2019-Dec-10 10:00 200 3 gusting 8 10.0
2019-Dec-10 09:55 248 3 gusting 9 10.0
2019-Dec-10 09:50 259 3 gusting 9 9.4
2019-Dec-10 09:45 252 3 gusting 6 9.4
2019-Dec-10 09:40 239 2 gusting 7 10.0
2019-Dec-10 09:35 264 4 gusting 10 10.0
2019-Dec-10 09:30 189 5 gusting 10 10.0
2019-Dec-10 09:25 210 3 gusting 13 10.0
2019-Dec-10 09:17 228 5 gusting 14 10.0
2019-Dec-10 09:10 232 6 gusting 10 10.0
2019-Dec-10 09:05 250 3 gusting 10 10.0
2019-Dec-10 09:02 261 5 gusting 12 10.0
2019-Dec-10 08:56 208 3 gusting 12 10.0
2019-Dec-10 08:50 255 2 gusting 11 10.0
2019-Dec-10 08:46 254 2 gusting 11 10.0
2019-Dec-10 08:36 247 3 gusting 9 10.0
2019-Dec-10 08:32 252 4 gusting 9 10.0
2019-Dec-10 08:25 238 4 gusting 10 10.0
2019-Dec-10 08:20 251 5 gusting 10 10.0
2019-Dec-10 08:17 232 3 gusting 9 10.0
2019-Dec-10 08:10 219 3 gusting 8 10.0
2019-Dec-10 08:05 258 3 gusting 7 10.0
2019-Dec-10 08:01 290 3 gusting 7 10.0
2019-Dec-10 07:55 259 3 gusting 7 10.0
2019-Dec-10 07:50 259 3 gusting 8 10.0
2019-Dec-10 07:47 245 3 gusting 8 10.0
2019-Dec-10 07:40 255 2 gusting 8 10.0
2019-Dec-10 07:35 261 3 gusting 6 10.0
2019-Dec-10 07:25 231 2 gusting 7 10.0
2019-Dec-10 07:20 240 3 gusting 7 10.0
2019-Dec-10 07:16 207 2 gusting 7 10.6
2019-Dec-10 07:10 195 4 gusting 9 10.6
2019-Dec-10 07:05 252 3 gusting 9 10.6
2019-Dec-10 07:01 237 3 gusting 10 10.6
2019-Dec-10 06:55 252 3 gusting 10 10.6
2019-Dec-10 06:50 196 4 gusting 13 10.6
2019-Dec-10 06:46 227 6 gusting 13 10.6
2019-Dec-10 06:40 237 6 gusting 13 10.6
2019-Dec-10 06:35 217 4 gusting 12 10.6
2019-Dec-10 06:30 243 4 gusting 9 10.6
2019-Dec-10 06:25 238 4 gusting 11 10.6
2019-Dec-10 06:20 230 3 gusting 11 10.6
2019-Dec-10 06:16 240 4 gusting 12 10.6
2019-Dec-10 06:10 266 5 gusting 12 10.6
2019-Dec-10 06:05 190 3 gusting 8 10.6
2019-Dec-10 06:00 245 3 gusting 8 10.6
2019-Dec-10 05:55 194 3 gusting 7 10.6
2019-Dec-10 05:50 196 2 gusting 6 10.6
2019-Dec-10 05:40 229 3 gusting 6 10.6
2019-Dec-10 05:30 231 2 gusting 6 11.1
2019-Dec-10 05:25 264 2 gusting 6 11.1
2019-Dec-10 05:20 231 3 gusting 6 11.1
2019-Dec-10 05:15 221 3 gusting 8 11.1
2019-Dec-10 05:10 230 3 gusting 8 11.1
2019-Dec-10 05:05 216 3 gusting 6 11.1
2019-Dec-10 04:55 221 3 gusting 10 11.1
2019-Dec-10 04:50 236 4 gusting 10 11.1
2019-Dec-10 04:41 260 3 gusting 10 11.1
2019-Dec-10 04:36 244 3 gusting 9 11.1
2019-Dec-10 04:31 212 4 gusting 9 11.1
2019-Dec-10 04:25 221 2 gusting 6 11.1
2019-Dec-10 04:20 218 2 gusting 6 11.1
2019-Dec-10 04:17 196 2 gusting 6 11.1
2019-Dec-10 04:11 243 1 gusting 7 11.1
2019-Dec-10 04:05 196 3 gusting 7 11.1
2019-Dec-10 04:02 195 4 gusting 7 11.1
2019-Dec-10 03:55 227 3 gusting 7 11.1
2019-Dec-10 03:50 250 1 gusting 6 11.1
2019-Dec-10 03:46 219 1 gusting 4 11.1
2019-Dec-10 03:40 248 1 gusting 6 11.1
2019-Dec-10 03:35 216 2 gusting 6 11.1
2019-Dec-10 03:32 169 2 gusting 7 11.1
2019-Dec-10 03:25 193 3 gusting 7 11.1
2019-Dec-10 03:20 198 3 gusting 8 11.1
2019-Dec-10 03:16 198 4 gusting 7 11.1
2019-Dec-10 03:10 225 1 gusting 8 11.1
2019-Dec-10 03:05 215 2 gusting 8 11.1
2019-Dec-10 03:01 206 3 gusting 8 11.1
2019-Dec-10 02:55 212 3 gusting 7 11.1
2019-Dec-10 02:50 198 4 gusting 9 11.1
2019-Dec-10 02:47 195 3 gusting 9 10.6
2019-Dec-10 02:40 200 3 gusting 10 10.6
2019-Dec-10 02:35 209 2 gusting 10 10.6
2019-Dec-10 02:31 229 3 gusting 13 10.6
2019-Dec-10 02:25 198 4 gusting 13 10.6
2019-Dec-10 02:20 214 2 gusting 10 10.0
2019-Dec-10 02:16 207 4 gusting 10 10.0
2019-Dec-10 02:10 160 3 gusting 7 9.4
2019-Dec-10 02:05 207 2 gusting 6 9.4
2019-Dec-10 02:00 226 2 gusting 6 9.4
2019-Dec-10 01:55 198 0 gusting 3 8.9
2019-Dec-10 01:50 198 1 gusting 3 8.9
2019-Dec-10 01:45 184 0 gusting 3 8.9
2019-Dec-10 01:40 184 0 gusting 2 8.9
2019-Dec-10 01:35 250 0 gusting 4 8.9
2019-Dec-10 01:30 219 1 gusting 4 8.9
2019-Dec-10 01:25 190 0 gusting 4 8.9
2019-Dec-10 01:20 168 1 gusting 5 8.9
2019-Dec-10 01:10 158 2 gusting 5 8.9
2019-Dec-10 01:05 181 1 gusting 4 8.9
2019-Dec-10 00:55 244 0 gusting 5 8.9
2019-Dec-10 00:50 157 2 gusting 6 8.9
2019-Dec-10 00:45 156 1 gusting 5 8.9
2019-Dec-10 00:40 185 0 gusting 3 8.9
2019-Dec-10 00:35 164 1 gusting 3 8.3
2019-Dec-10 00:30 179 0 gusting 2 8.3
2019-Dec-10 00:21 156 0 gusting 5 8.9
2019-Dec-10 00:16 150 0 gusting 5 8.9
2019-Dec-10 00:11 217 0 gusting 3 8.9
2019-Dec-10 00:06 205 0 gusting 2 8.9
2019-Dec-10 00:01 167 8.9
2019-Dec-09 23:56 180 0 gusting 3 8.9
2019-Dec-09 23:50 221 1 gusting 4 8.9
2019-Dec-09 23:46 196 0 gusting 4 8.9
2019-Dec-09 23:41 210 0 gusting 4 8.9
2019-Dec-09 23:35 153 1 gusting 4 8.9
2019-Dec-09 23:31 189 1 gusting 4 8.9
2019-Dec-09 23:25 171 0 gusting 3 8.9
2019-Dec-09 23:20 195 0 gusting 4 8.9
2019-Dec-09 23:16 195 2 gusting 5 9.4
2019-Dec-09 23:10 168 2 gusting 5 9.4
2019-Dec-09 23:05 148 1 gusting 4 9.4
2019-Dec-09 23:00 164 0 gusting 3 8.9
2019-Dec-09 22:55 153 1 gusting 3 8.9
2019-Dec-09 22:50 120 1 gusting 3 8.9
2019-Dec-09 22:45 141 0 gusting 2 8.9
2019-Dec-09 22:40 197 1 gusting 3 8.9
2019-Dec-09 22:35 203 1 gusting 5 8.9
2019-Dec-09 22:31 250 0 gusting 5 9.4
2019-Dec-09 22:25 207 1 gusting 5 9.4
2019-Dec-09 22:20 159 0 gusting 2 9.4
2019-Dec-09 22:16 182 0 gusting 2 9.4
2019-Dec-09 22:10 218 0 gusting 2 9.4
2019-Dec-09 22:05 177 0 gusting 2 9.4
2019-Dec-09 22:01 186 0 gusting 2 9.4